阿斯特拉 1F星 (ASTRA 1F)

导读

ASTRA 1F(阿斯特拉1F星)是由SES运营的商业通信卫星,由美国休斯公司制造,采用HS-601平台、三轴稳定设计,于1996年4月8日发射升空,定点于东经19.2度地球静止轨道。它主要服务欧洲地区,承担电视广播与数据传输业务,推动了欧洲卫星电视的普及,为多家运营商提供转发器资源,是Astra-1系列中具备长期稳定性的代表性通信卫星。

基本信息
目录编号:
23842
目录名称:
ASTRA 1F
国际标识:
1996-021A
轨道中心:
EARTH
卫星名称:
阿斯特拉 1F星
卫星全名:
阿斯特拉 1F星 (ASTRA 1F)
卫星状态:
在轨 (已飞行11116 天)
发射日期:
1996-04-08 UTC
国别 :
(SES)
星等 :
--
该卫星已列入 空间交会检测服务 Space Conjunction Data Service (SCDS) ,当前飞行风险评估等级: 无高风险
轨道信息
数据来源 国际轨道数据 AOE轨道数据
星历时间 2026-09-13T20:35:05+0800
14小时前
查看轨道信息
2026-09-13T01:00:00+0800
1天前
查看轨道信息
半长轴 42491.428km 42491.314km
偏心率 0.0005196 0.0005226
轨道倾角 5.644° 5.642°
近地点辐角 131.292° 130.907°
升交点赤经 72.763° 72.773°
平近点角 70.299° 139.493°
近地点 36091.212km 36090.971km
远地点 36135.37km 36135.383km
周期 1452.820分钟 1452.814分钟
每日圈数 0.991176 0.99118
详细信息
卫星平台:
HS-601
平衡模式:
三轴稳定
覆盖范围:
全球
运营商:
欧洲卫星公司
运营商所在国:
卢森堡
制造商(研发单位):
休斯公司
制造商所在国:
美国
使用方式:
暂无
卫星简介
阿斯特拉卫星是由SES阿斯特拉运营的商业通信卫星,主要提供电视直播到户业务。Astra卫星包括三个系列共19颗卫星,分别定点在三个不同轨位:Astra-1系列包括十三颗卫星,定点东经19.2度;Astra-2系列包括4颗卫星,定点东经28.2度;Astra-3系列包括2颗卫星,定点东经23.5度。该卫星已退役。
2D轨道图
3D轨道图
轨道高度分析图
轨道倾角分析图
轨道综合分析图
查看轨道综合分析图
与全量物体交会距离演化趋势 订阅飞行安全评估服务
与全量物体交会风险概率演化趋势 订阅飞行安全评估服务